Voltar ao catálogo

STARLINK-37507

AtivoComunicaçõesSSO
NORAD 68916·PAYLOAD·🇺🇸 United States

Lançado Apr 30, 2026 de Vandenberg Space Force Base

Loading…

Próximas Passagens (próximas 24 horas)

TLE

AtualizadoSource: CelesTrak SupGP

Época: Sep 15, 2026, 03:07 UTC

1 68916C 26097X   26258.13034722 -.00038463  00000+0 -11940-2 0  2589
2 68916  97.2856  92.3992 0001662  90.6529 215.3629 15.33457729    14

Acompanhe STARLINK-37507 em tempo real com AllMySat

Download on the App Store